Location: Liberec
(50.7830°N, 15.0500°E)
Time: 06:58:51
(UTC+02:00)

Envisat - Visible Passes

Search period start: 20 May 2026 00:00
Search period end: 30 May 2026 00:00
Orbit: 761 x 762 km, 98.4° (Epoch: 19 May)

Date Brightness Start Highest point End Pass type
(mag) Time Alt. Az. Time Alt. Az. Time Alt. Az.
20 May 4.8 02:43:49 10° NE 02:47:59 25° E 02:52:07 10° SSE visible
20 May 3.3 04:22:17 10° N 04:27:13 54° WNW 04:32:07 10° SW visible
21 May 5.5 02:07:39 10° ENE 02:09:40 12° E 02:11:39 10° ESE visible
21 May 3.1 03:44:22 10° NNE 03:49:27 77° ESE 03:54:31 10° S visible
22 May 4.2 03:06:45 10° NNE 03:11:29 38° E 03:16:10 10° SSE visible
23 May 5.1 02:29:42 10° NE 02:33:18 19° E 02:36:53 10° SE visible
23 May 3.1 04:07:41 10° N 04:12:45 70° WNW 04:17:46 10° SSW visible
24 May 3.5 03:29:52 10° NNE 03:34:54 59° ESE 03:39:53 10° S visible
25 May 4.6 02:52:26 10° NNE 02:56:51 29° E 03:01:14 10° SSE visible
26 May 5.4 02:15:47 10° NE 02:18:35 15° E 02:21:21 10° ESE visible
26 May 3.0 03:53:08 10° NNE 03:58:14 90° NW 04:03:18 10° SSW visible
27 May 3.9 03:15:26 10° NNE 03:20:19 45° E 03:25:09 10° S visible
28 May 4.9 02:38:12 10° NE 02:42:11 23° E 02:46:08 10° SE visible
29 May 5.6 02:02:34 10° ENE 02:03:49 11° E 02:05:04 10° E visible
29 May 3.2 03:38:37 10° NNE 03:43:42 70° ESE 03:48:45 10° S visible
